カタログに戻る

EXPLORER 33

AIMP-D

Lost科学LPO
NORAD 2258·PAYLOAD·🇺🇸 United States

打ち上げ Jul 1, 1966 から Cape Canaveral Space Force Station

Loading…

TLE

古いSource: Space-Track

元期: May 12, 1971, 12:00 UTC

1  2258U 66058A   71132.50000000 +.00000700 +00000-0 +10000-3 0  9992
2  2258 024.1400 173.5399 2833030 119.2000 021.7899 00.03712071001423

AllMySatでEXPLORER 33をリアルタイム追跡

Download on the App Store